Fitchburg, MA

6:47 PM EDT on July 23, 2019 (GMT -0400)
Fitchburg Municipal

Weather History for KFIT - May, 2019

Change the Weather History Date:

Wednesday, May 22, 2019

  Actual Average (KORH) Record (KORH)
Temperature  
Mean Temperature 61 °F -  
Max Temperature 73 °F 69 °F 90 °F (1992)
Min Temperature 50 °F 49 °F 32 °F (1936)
Degree Days  
Heating Degree Days 4    
Growing Degree Days 11 (Base 50)    
Moisture  
Dew Point 36 °F    
Average Humidity 42    
Maximum Humidity 74    
Minimum Humidity 23    
Precipitation  
Precipitation 0.00 in - - ()
Sea Level Pressure  
Sea Level Pressure 30.16 in    
Wind  
Wind Speed 9 mph (NNW)    
Max Wind Speed 18 mph    
Max Gust Speed 24 mph    
Visibility 10 miles    
Events      
Averages and records for this station are not official NWS values.
T = Trace of Precipitation, MM = Missing Value Source: NWS Daily Summary

Daily Weather History Graph

Daily Weather History Graph

Search for Another Location

Airport or City:

Astronomy

May. 22, 2019 Rise Set
Actual Time 5:18 AM EDT 8:09 PM EDT
Civil Twilight 4:45 AM EDT 8:42 PM EDT
Nautical Twilight 4:04 AM EDT 9:24 PM EDT
Astronomical Twilight 3:15 AM EDT 10:12 PM EDT
Moon 11:51 PM EDT (5/22) 8:23 AM EDT (5/22)
Length of Visible Light 15h 56m
Length of Day
14h 50m
Waning Gibbous, 85% of the Moon is Illuminated
May 22
Waning Gibbous
May 26
Last Quarter
Jun 3
New
Jun 10
First Quarter
Jun 17
Full

Hourly Weather History & Observations

Time (EDT) Temp. Dew Point Humidity Pressure Visibility Wind Dir Wind Speed Gust Speed Precip Events Conditions
12:52 AM 54.0 °F 34.0 °F 47% 30.03 in 10.0 mi NW 6.9 mph - N/A   Clear
1:52 AM 52.0 °F 35.1 °F 53% 30.03 in 10.0 mi NW 6.9 mph - N/A   Clear
2:52 AM 52.0 °F 35.1 °F 53% 30.05 in 10.0 mi WNW 10.4 mph - N/A   Clear
3:52 AM 50.0 °F 36.0 °F 59% 30.06 in 10.0 mi WNW 11.5 mph - N/A   Clear
4:52 AM 51.1 °F 36.0 °F 56% 30.08 in 10.0 mi NW 8.1 mph - N/A   Clear
5:52 AM 51.1 °F 36.0 °F 56% 30.12 in 10.0 mi Calm Calm - N/A   Clear
6:52 AM 54.0 °F 36.0 °F 51% 30.14 in 10.0 mi NNW 13.8 mph 20.7 mph N/A   Clear
7:52 AM 55.0 °F 36.0 °F 49% 30.16 in 10.0 mi NNW 13.8 mph 21.9 mph N/A   Clear
8:52 AM 57.9 °F 36.0 °F 44% 30.19 in 10.0 mi NNW 11.5 mph - N/A   Clear
9:52 AM 60.1 °F 35.1 °F 39% 30.20 in 10.0 mi North 18.4 mph 24.2 mph N/A   Clear
10:52 AM 63.0 °F 35.1 °F 35% 30.20 in 10.0 mi NNW 13.8 mph 21.9 mph N/A   Clear
11:52 AM 64.9 °F 35.1 °F 33% 30.20 in 10.0 mi North 11.5 mph - N/A   Clear
12:52 PM 68.0 °F 35.1 °F 30% 30.18 in 10.0 mi North 10.4 mph 18.4 mph N/A   Clear
1:52 PM 70.0 °F 32.0 °F 25% 30.17 in 10.0 mi NNW 11.5 mph 24.2 mph N/A   Clear
2:52 PM 71.1 °F 32.0 °F 24% 30.18 in 10.0 mi North 12.7 mph 23.0 mph N/A   Clear
3:52 PM 72.0 °F 32.0 °F 23% 30.18 in 10.0 mi NNW 16.1 mph 20.7 mph N/A   Clear
4:52 PM 72.0 °F 32.0 °F 23% 30.18 in 10.0 mi NNW 11.5 mph - N/A   Clear
5:52 PM 71.1 °F 32.0 °F 24% 30.20 in 10.0 mi North 6.9 mph - N/A   Clear
6:52 PM 70.0 °F 33.1 °F 26% 30.20 in 10.0 mi NNE 5.8 mph - N/A   Clear
7:52 PM 64.0 °F 36.0 °F 35% 30.23 in 10.0 mi Calm Calm - N/A   Clear
8:52 PM 61.0 °F 37.9 °F 42% 30.24 in 10.0 mi SE 6.9 mph - N/A   Clear
9:52 PM 57.9 °F 39.9 °F 51% 30.23 in 10.0 mi SE 5.8 mph - N/A   Clear
10:52 PM 55.9 °F 44.1 °F 64% 30.24 in 10.0 mi SSE 6.9 mph - N/A   Clear
11:52 PM 53.1 °F 45.0 °F 74% 30.25 in 10.0 mi SSE 5.8 mph - N/A   Clear